User: anonymous   Login
Location: Brno
(49.2000°N, 16.6330°E)
Time: 17:17:35
(UTC+02:00)
Language:

Cosmos 2227 - Orbit

View from above orbital plane
View from above orbital plane
View from above satellite
View from above satellite

Ground track
Ground track

The orbit data is extracted from the following two-line orbital elements,

1 22284U 92093A   18111.56642170  .00000019  00000-0  35249-4 0  9991
2 22284  70.9803 309.0149 0017019  62.5994 297.6857 14.13294355306220
Epoch (UTC): 21 April 2018 13:35:38
Eccentricity: 0.0017019
inclination: 70.9803°
perigee height: 836 km
apogee height: 860 km
right ascension of ascending node: 309.0149°
argument of perigee: 62.5994°
revolutions per day: 14.13294355
mean anomaly at epoch: 297.6857°
orbit number at epoch: 30622

The dashed part of the orbit path shows where the satellite is in the earth's shadow,  

DLR